Location: CARMA
(37.2805°N, 118.1419°W)
Time: 04:36:19
(UTC-08:00)

Daily predictions for brighter satellites

Satellite Brightness Start Highest point End
(mag) Time Altitude Azimuth Time Altitude Azimuth Time Altitude Azimuth
Cosmos 1943 Rocket 4.2 03:09:50 22° ENE 03:09:50 22° ENE 03:12:40 10° NE
ATLAS CENTAUR R/B 4.0 03:15:18 52° NE 03:15:18 52° NE 03:28:21 10° SE
Lacrosse 5 3.2 03:49:14 37° NE 03:49:14 37° NE 03:52:19 10° NE
ADEOS II 3.4 03:45:17 10° NNE 03:48:14 34° NNE 03:48:14 34° NNE
USA 234 3.1 03:50:59 10° NE 03:57:32 87° NW 03:57:37 87° WNW
Cosmos 2369 Rocket 3.5 04:07:21 28° N 04:07:21 28° N 04:10:14 10° N
Cosmos 407 Rocket 3.9 04:08:27 19° N 04:12:17 62° ENE 04:17:32 10° SSE
Nadezhda 2 Rocket 4.4 04:17:53 10° N 04:24:01 86° E 04:30:10 10° S
Cosmos 1833 4.3 04:23:53 10° NNW 04:29:27 75° ENE 04:35:02 10° SSE
GEOS 3 Rocket 3.5 04:26:07 10° SSE 04:31:06 64° SW 04:31:06 64° SW
Okean 1-7 3.7 04:30:38 10° S 04:34:47 52° E 04:38:55 10° NNE
Tiangong 1 2.8 04:39:12 28° NE 04:39:12 28° NE 04:40:48 10° ENE
Cosmos 1190 Rocket 3.9 04:37:57 47° NW 04:39:17 63° WSW 04:44:29 10° S
Sich 1 Rocket 3.4 04:35:39 10° NNW 04:40:11 72° W 04:44:37 10° S
Cosmos 1908 Rocket 3.4 04:37:50 10° NNW 04:42:18 71° W 04:46:45 10° S
ATLAS 5 CENTAUR R/B 2.9 04:45:45 29° NW 04:45:45 29° NW 04:49:39 10° NNE
Cosmos 1417 Rocket 4.4 04:39:07 10° S 04:45:19 86° E 04:51:29 10° N
Cosmos 1782 Rocket 3.7 04:43:23 10° N 04:47:52 75° E 04:52:17 10° SSE
Meteor 2-10 Rocket 3.3 04:43:41 14° SSW 04:48:01 75° W 04:53:04 10° N
Okean-O 2.6 04:45:25 10° N 04:49:48 61° WNW 04:50:58 44° SW
Cosmos 1943 Rocket 2.6 04:51:24 37° WNW 04:51:39 37° WNW 04:56:46 10° N
CZ-4B R/B 4.3 04:50:05 10° N 04:53:54 26° NW 04:53:54 26° NW
Cosmos 1782 4.1 04:51:23 10° SSE 04:55:06 41° E 04:58:51 10° NNE
SKYMED 2 4.2 04:52:49 10° SSE 04:57:04 57° ENE 05:01:19 10° N
Meteor 1-14 Rocket 4.1 04:58:15 10° NNW 05:04:04 77° W 05:09:42 10° S
Cosmos 1954 Rocket 3.9 05:01:02 10° NNW 05:06:21 77° WSW 05:11:39 10° S
CZ-4C R/B 2.1 05:03:56 23° SW 05:07:10 64° NW 05:13:00 10° NNE
Cosmos 1420 Rocket 3.9 05:05:34 10° SSW 05:10:43 77° WNW 05:15:56 10° NNE
NOAA 6 3.9 05:05:39 10° N 05:10:47 69° WNW 05:15:52 10° SSW
Okean 2 Rocket 2.9 05:06:28 10° N 05:10:52 82° W 05:15:15 10° S
Cosmos 1606 3.7 05:07:22 10° SSE 05:11:05 48° E 05:14:51 10° NNE
Ariane Rocket 4.0 05:06:10 10° NNE 05:11:06 49° E 05:15:59 10° S
Cosmos 1703 Rocket 4.4 05:18:40 24° WSW 05:19:54 28° WNW 05:23:41 10° NNW
Thor Agena Rocket 4.0 05:18:36 10° SSW 05:23:28 39° W 05:28:19 10° NNW
SL-08 R/B 4.5 05:18:35 10° NNW 05:24:50 65° W 05:31:05 10° S
Meteor 2-6 Rocket 4.4 05:19:51 10° S 05:25:13 73° E 05:30:36 10° NNE
Meteor 1-31 Rocket 4.1 05:22:58 10° NNW 05:25:51 21° WNW 05:25:51 21° WNW
DMSP B5D1-3 4.5 05:21:12 10° SSE 05:26:17 89° ENE 05:31:24 10° NNW
ADEOS II 3.8 05:27:15 10° NW 05:29:11 13° WNW 05:29:11 13° WNW
Cosmos 2151 Rocket 3.9 05:25:31 10° N 05:30:02 74° E 05:34:30 10° SSE
Lacrosse 5 3.3 05:28:28 17° WNW 05:30:41 22° NNW 05:34:36 10° NNE
Delta 2 Rocket 4.3 05:27:00 15° WSW 05:30:56 58° SSE 05:36:19 10° E
CZ-4 R/B 3.6 05:28:26 10° NE 05:32:08 30° E 05:35:45 10° SSE
S3M 4.2 05:27:00 10° SSW 05:33:09 51° W 05:39:16 10° N
Cosmos 2297 Rocket 4.4 05:28:51 10° N 05:33:27 25° ENE 05:38:01 10° ESE
Meteor 1-25 Rocket 4.3 05:28:08 10° NNW 05:33:52 61° W 05:39:34 10° S
SL-12 R/B (Aux Motor) 4.3 05:32:39 14° NW 05:35:07 52° NNE 05:37:05 10° ESE
Cosmos 1452 Rocket 4.4 05:31:29 12° WSW 05:35:27 28° WNW 05:39:58 10° N
Cosmos 1607 4.0 05:30:49 10° SSW 05:36:55 82° ESE 05:43:06 10° NNE
USA 234 4.3 05:34:33 10° NNE 05:39:59 29° NNW 05:44:59 12° W
Cosmos 1553 Rocket 4.3 05:35:16 10° SSW 05:41:02 41° WNW 05:46:56 10° N
CSL-04 Debris 4.5 05:37:28 10° NNE 05:42:52 74° ESE 05:48:14 10° S
COSMO-SKYMED 1 3.0 05:41:05 10° SSW 05:45:07 38° W 05:49:11 10° NNW
Cosmos 2219 3.2 05:41:11 10° NNW 05:46:45 59° WSW 05:52:15 10° S
Cosmos 1741 Rocket 4.0 05:43:47 10° NNW 05:49:00 68° WSW 05:54:12 10° S
Meteor 1-11 Rocket 4.3 05:46:50 10° N 05:52:47 69° E 05:58:36 10° SSE
Meteor 1-10 Rocket 4.3 05:47:39 10° SSW 05:53:04 54° WNW 05:58:35 10° N
Cosmos 2227 Rocket 3.3 05:48:06 10° N 05:53:34 47° ENE 05:59:00 10° SE
SJ-12 4.0 05:59:15 10° NNE 06:03:22 86° E 06:07:29 10° SSW
ATLAS 3B R/B 3.0 05:59:35 10° SW 06:07:08 66° NW 06:14:26 10° NNE
